| time (UTC) | temp C | wind direction | speed KPH | gust KPH | rain 1hr cm | rain 24hr cm | rain mn cm | humidity % | barometer mb |
| 20260507081930 | 4 | 175 | 0.0 | 0.0 | 0.00 | 0.00 | 0.00 | 89 | 1018.6 |
| 20260507081426 | 4 | 175 | 0.0 | 0.0 | 0.00 | 0.00 | 0.00 | 89 | 1018.7 |
| 20260507080923 | 4 | 175 | 0.0 | 0.0 | 0.00 | 0.00 | 0.00 | 88 | 1018.5 |
| 20260507080419 | 4 | 175 | 0.0 | 0.0 | 0.00 | 0.00 | 0.00 | 88 | 1018.8 |
| 20260507075914 | 4 | 175 | 0.0 | 0.0 | 0.00 | 0.00 | 0.00 | 87 | 1018.4 |
| 20260507075411 | 4 | 175 | 0.0 | 0.0 | 0.00 | 0.00 | 0.00 | 87 | 1018.6 |
| 20260507074908 | 5 | 175 | 0.0 | 0.0 | 0.00 | 0.00 | 0.00 | 87 | 1018.7 |
| 20260507074404 | 5 | 175 | 0.0 | 0.0 | 0.00 | 0.00 | 0.00 | 85 | 1018.9 |
| 20260507073902 | 5 | 175 | 0.0 | 0.0 | 0.00 | 0.00 | 0.00 | 85 | 1018.8 |
| 20260507073358 | 5 | 175 | 0.0 | 0.0 | 0.00 | 0.00 | 0.00 | 84 | 1018.8 |
| 20260507072855 | 5 | 175 | 0.0 | 0.0 | 0.00 | 0.00 | 0.00 | 84 | 1018.9 |
| 20260507072353 | 5 | 175 | 0.0 | 0.0 | 0.00 | 0.00 | 0.00 | 84 | 1019.0 |
| 20260507071850 | 5 | 175 | 0.0 | 0.0 | 0.00 | 0.00 | 0.00 | 83 | 1019.1 |
| 20260507071347 | 5 | 175 | 0.0 | 0.0 | 0.00 | 0.00 | 0.00 | 83 | 1019.0 |
| 20260507070843 | 5 | 175 | 0.0 | 0.0 | 0.00 | 0.00 | 0.00 | 83 | 1019.0 |
| 20260507070341 | 5 | 175 | 0.0 | 0.0 | 0.00 | 0.00 | 0.00 | 83 | 1019.1 |
| 20260507065837 | 5 | 175 | 0.0 | 0.0 | 0.00 | 0.00 | 0.00 | 82 | 1019.2 |
| 20260507065334 | 5 | 175 | 0.0 | 0.0 | 0.00 | 0.00 | 0.00 | 81 | 1019.0 |
| 20260507064831 | 5 | 175 | 0.0 | 0.0 | 0.00 | 0.00 | 0.00 | 81 | 1019.0 |
| 20260507064330 | 5 | 175 | 0.0 | 0.0 | 0.00 | 0.00 | 0.00 | 80 | 1019.3 |
| 20260507063827 | 5 | 175 | 0.0 | 0.0 | 0.00 | 0.00 | 0.00 | 80 | 1019.0 |
| 20260507063324 | 5 | 175 | 0.0 | 0.0 | 0.00 | 0.00 | 0.00 | 80 | 1019.0 |
| 20260507062820 | 6 | 175 | 0.0 | 0.0 | 0.00 | 0.00 | 0.00 | 79 | 1019.1 |
| 20260507062318 | 6 | 175 | 0.0 | 0.0 | 0.00 | 0.00 | 0.00 | 78 | 1019.0 |
| 20260507061816 | 6 | 175 | 0.0 | 0.0 | 0.00 | 0.00 | 0.00 | 77 | 1019.2 |
| 20260507061313 | 6 | 175 | 0.0 | 0.0 | 0.00 | 0.00 | 0.00 | 76 | 1019.0 |
| 20260507060812 | 6 | 175 | 0.0 | 0.0 | 0.00 | 0.00 | 0.00 | 77 | 1019.1 |
| 20260507060308 | 6 | 175 | 0.0 | 0.0 | 0.00 | 0.00 | 0.00 | 74 | 1019.1 |
| 20260507055804 | 6 | 175 | 0.0 | 0.0 | 0.00 | 0.00 | 0.00 | 74 | 1018.9 |
| 20260507055300 | 7 | 175 | 0.0 | 0.0 | 0.00 | 0.00 | 0.00 | 74 | 1019.1 |
| 20260507054756 | 7 | 175 | 0.0 | 0.0 | 0.00 | 0.00 | 0.00 | 73 | 1019.0 |
| 20260507054253 | 7 | 175 | 0.0 | 0.0 | 0.00 | 0.00 | 0.00 | 72 | 1019.1 |
| 20260507053750 | 7 | 175 | 0.0 | 0.0 | 0.00 | 0.00 | 0.00 | 72 | 1019.1 |
| 20260507053248 | 7 | 175 | 0.0 | 0.0 | 0.00 | 0.00 | 0.00 | 71 | 1019.1 |
| 20260507052746 | 7 | 175 | 0.0 | 0.0 | 0.00 | 0.00 | 0.00 | 71 | 1019.1 |
| 20260507052243 | 7 | 175 | 0.0 | 0.0 | 0.00 | 0.00 | 0.00 | 71 | 1019.0 |
| 20260507051741 | 7 | 175 | 0.0 | 0.0 | 0.00 | 0.00 | 0.00 | 69 | 1018.9 |
| 20260507051237 | 7 | 175 | 0.0 | 0.0 | 0.00 | 0.00 | 0.00 | 69 | 1019.1 |
| 20260507050734 | 8 | 175 | 0.0 | 0.0 | 0.00 | 0.00 | 0.00 | 69 | 1018.9 |
| 20260507050231 | 8 | 175 | 0.0 | 0.0 | 0.00 | 0.00 | 0.00 | 69 | 1018.7 |
| 20260507045728 | 8 | 175 | 0.0 | 0.0 | 0.00 | 0.00 | 0.00 | 66 | 1018.7 |
| 20260507045224 | 8 | 175 | 0.0 | 0.0 | 0.00 | 0.00 | 0.00 | 66 | 1018.7 |
| 20260507044721 | 8 | 174 | 0.0 | 0.0 | 0.00 | 0.00 | 0.00 | 64 | 1018.8 |
| 20260507044218 | 8 | 174 | 0.0 | 0.0 | 0.00 | 0.00 | 0.00 | 65 | 1018.8 |
| 20260507043714 | 8 | 174 | 0.0 | 0.0 | 0.00 | 0.00 | 0.00 | 65 | 1018.7 |
| 20260507043211 | 8 | 179 | 0.0 | 0.0 | 0.00 | 0.00 | 0.00 | 64 | 1018.5 |
| 20260507042707 | 9 | 176 | 0.0 | 0.0 | 0.00 | 0.00 | 0.00 | 63 | 1018.8 |
| 20260507042202 | 9 | 174 | 0.0 | 0.0 | 0.00 | 0.00 | 0.00 | 62 | 1018.6 |
| 20260507041700 | 9 | 174 | 0.0 | 0.0 | 0.00 | 0.00 | 0.00 | 63 | 1018.7 |
| 20260507041156 | 9 | 170 | 0.0 | 0.0 | 0.00 | 0.00 | 0.00 | 61 | 1018.8 |
| 20260507040653 | 9 | 173 | 0.0 | 0.0 | 0.00 | 0.00 | 0.00 | 63 | 1018.7 |
| 20260507040149 | 9 | 170 | 0.0 | 0.0 | 0.00 | 0.00 | 0.00 | 63 | 1018.8 |
| 20260507035646 | 10 | 171 | 0.0 | 0.0 | 0.00 | 0.00 | 0.00 | 62 | 1018.7 |
| 20260507035142 | 10 | 171 | 0.0 | 0.0 | 0.00 | 0.00 | 0.00 | 60 | 1018.8 |
| 20260507034639 | 10 | 174 | 0.0 | 0.0 | 0.00 | 0.00 | 0.00 | 62 | 1018.7 |
| 20260507034136 | 10 | 172 | 0.0 | 0.0 | 0.00 | 0.00 | 0.00 | 59 | 1018.5 |
| 20260507033634 | 10 | 104 | 1.6 | 3.2 | 0.00 | 0.00 | 0.00 | 58 | 1018.6 |
| 20260507033131 | 10 | 147 | 0.0 | 0.0 | 0.00 | 0.00 | 0.00 | 60 | 1018.6 |
| 20260507032629 | 10 | 195 | 0.0 | 0.0 | 0.00 | 0.00 | 0.00 | 62 | 1018.5 |
| 20260507032124 | 10 | 181 | 0.0 | 0.0 | 0.00 | 0.00 | 0.00 | 61 | 1018.6 |
| 20260507031622 | 10 | 175 | 0.0 | 0.0 | 0.00 | 0.00 | 0.00 | 60 | 1018.5 |
| 20260507031118 | 10 | 169 | 0.0 | 0.0 | 0.00 | 0.00 | 0.00 | 62 | 1018.5 |
| 20260507030615 | 10 | 174 | 0.0 | 0.0 | 0.00 | 0.00 | 0.00 | 64 | 1018.2 |
| 20260507030113 | 10 | 175 | 0.0 | 0.0 | 0.00 | 0.00 | 0.00 | 63 | 1018.2 |
| 20260507025610 | 10 | 171 | 0.0 | 0.0 | 0.00 | 0.00 | 0.00 | 62 | 1018.4 |
| 20260507025106 | 10 | 170 | 0.0 | 0.0 | 0.00 | 0.00 | 0.00 | 61 | 1018.2 |
| 20260507024605 | 10 | 173 | 0.0 | 0.0 | 0.00 | 0.00 | 0.00 | 62 | 1018.3 |
| 20260507024102 | 10 | 175 | 0.0 | 0.0 | 0.00 | 0.00 | 0.00 | 61 | 1018.3 |
| 20260507023557 | 11 | 170 | 0.0 | 0.0 | 0.00 | 0.00 | 0.00 | 59 | 1018.2 |
| 20260507023055 | 11 | 178 | 0.0 | 0.0 | 0.00 | 0.00 | 0.00 | 61 | 1018.2 |
| 20260507022551 | 11 | 175 | 0.0 | 0.0 | 0.00 | 0.00 | 0.00 | 60 | 1018.2 |
| 20260507022046 | 11 | 174 | 0.0 | 0.0 | 0.00 | 0.00 | 0.00 | 58 | 1018.1 |
| 20260507021543 | 11 | 214 | 0.0 | 0.0 | 0.00 | 0.00 | 0.00 | 56 | 1018.2 |
| 20260507021039 | 11 | 174 | 0.0 | 0.0 | 0.00 | 0.00 | 0.00 | 58 | 1018.0 |
| 20260507020537 | 11 | 177 | 0.0 | 0.0 | 0.00 | 0.00 | 0.00 | 55 | 1017.9 |
| 20260507020033 | 12 | 173 | 0.0 | 0.0 | 0.00 | 0.00 | 0.00 | 55 | 1017.8 |
| 20260507015532 | 12 | 177 | 0.0 | 0.0 | 0.00 | 0.00 | 0.00 | 55 | 1017.8 |
| 20260507015029 | 12 | 170 | 0.0 | 0.0 | 0.00 | 0.00 | 0.00 | 51 | 1017.7 |
| 20260507014526 | 12 | 177 | 0.0 | 0.0 | 0.00 | 0.00 | 0.00 | 53 | 1017.8 |
| 20260507014021 | 12 | 174 | 0.0 | 0.0 | 0.00 | 0.00 | 0.00 | 53 | 1017.7 |
| 20260507013518 | 12 | 166 | 0.0 | 0.0 | 0.00 | 0.00 | 0.00 | 51 | 1017.7 |
| 20260507013015 | 12 | 177 | 0.0 | 0.0 | 0.00 | 0.00 | 0.00 | 53 | 1017.7 |
| 20260507012512 | 13 | 157 | 1.6 | 1.6 | 0.00 | 0.00 | 0.00 | 48 | 1017.6 |
| 20260507012009 | 13 | 181 | 0.0 | 0.0 | 0.00 | 0.00 | 0.00 | 52 | 1017.6 |
| 20260507011506 | 13 | 112 | 1.6 | 3.2 | 0.00 | 0.00 | 0.00 | 50 | 1017.5 |
| 20260507011002 | 13 | 181 | 0.0 | 0.0 | 0.00 | 0.00 | 0.00 | 50 | 1017.4 |
| 20260507010456 | 13 | 178 | 0.0 | 0.0 | 0.00 | 0.00 | 0.00 | 51 | 1017.6 |
| 20260507005953 | 13 | 173 | 0.0 | 0.0 | 0.00 | 0.00 | 0.00 | 50 | 1017.3 |
| 20260507005451 | 13 | 358 | 0.0 | 3.2 | 0.00 | 0.00 | 0.00 | 47 | 1017.2 |
| 20260507004947 | 13 | 172 | 0.0 | 0.0 | 0.00 | 0.00 | 0.00 | 47 | 1017.3 |
| 20260507004444 | 13 | 24 | 1.6 | 3.2 | 0.00 | 0.00 | 0.00 | 48 | 1017.3 |
| 20260507003942 | 13 | 172 | 0.0 | 0.0 | 0.00 | 0.00 | 0.00 | 46 | 1017.2 |
| 20260507003436 | 13 | 171 | 0.0 | 0.0 | 0.00 | 0.00 | 0.00 | 49 | 1017.0 |
| 20260507002932 | 14 | 176 | 0.0 | 0.0 | 0.00 | 0.00 | 0.00 | 47 | 1017.2 |
| 20260507002428 | 14 | 179 | 0.0 | 0.0 | 0.00 | 0.00 | 0.00 | 46 | 1017.0 |
| 20260507001926 | 14 | 176 | 0.0 | 0.0 | 0.00 | 0.00 | 0.00 | 48 | 1017.1 |
| 20260507001422 | 14 | 160 | 0.0 | 0.0 | 0.00 | 0.00 | 0.00 | 46 | 1017.0 |
| 20260507000919 | 14 | 153 | 0.0 | 1.6 | 0.00 | 0.00 | 0.00 | 45 | 1016.9 |
| 20260507000414 | 15 | 37 | 1.6 | 4.8 | 0.00 | 0.00 | 0.00 | 46 | 1016.8 |
| 20260506235911 | 15 | 171 | 1.6 | 1.6 | 0.00 | 0.00 | 0.00 | 45 | 1016.8 |
| 20260506235409 | 15 | 137 | 3.2 | 4.8 | 0.00 | 0.00 | 0.00 | 44 | 1016.5 |
| 20260506234903 | 15 | 102 | 1.6 | 1.6 | 0.00 | 0.00 | 0.00 | 44 | 1016.4 |
| 20260506234402 | 15 | 176 | 0.0 | 0.0 | 0.00 | 0.00 | 0.00 | 44 | 1016.3 |
| 20260506233859 | 15 | 169 | 0.0 | 0.0 | 0.00 | 0.00 | 0.00 | 45 | 1016.0 |
| 20260506233355 | 15 | 340 | 3.2 | 3.2 | 0.00 | 0.00 | 0.00 | 43 | 1016.0 |
| 20260506232852 | 15 | 24 | 3.2 | 3.2 | 0.00 | 0.00 | 0.00 | 43 | 1016.1 |
| 20260506232348 | 15 | 153 | 0.0 | 0.0 | 0.00 | 0.00 | 0.00 | 43 | 1016.1 |
| 20260506231844 | 15 | 55 | 0.0 | 1.6 | 0.00 | 0.00 | 0.00 | 42 | 1016.1 |
| 20260506231342 | 15 | 134 | 0.0 | 0.0 | 0.00 | 0.00 | 0.00 | 43 | 1016.0 |
| 20260506230839 | 15 | 138 | 3.2 | 4.8 | 0.00 | 0.00 | 0.00 | 43 | 1016.1 |
| 20260506230336 | 15 | 100 | 3.2 | 4.8 | 0.00 | 0.00 | 0.00 | 43 | 1016.1 |
| 20260506225832 | 16 | 177 | 1.6 | 3.2 | 0.00 | 0.00 | 0.00 | 42 | 1016.1 |
| 20260506225329 | 16 | 107 | 0.0 | 1.6 | 0.00 | 0.00 | 0.00 | 44 | 1016.1 |
| 20260506224826 | 16 | 16 | 3.2 | 4.8 | 0.00 | 0.00 | 0.00 | 42 | 1016.1 |
| 20260506224324 | 15 | 169 | 0.0 | 0.0 | 0.00 | 0.00 | 0.00 | 45 | 1016.1 |
| 20260506223820 | 15 | 358 | 9.7 | 12.9 | 0.00 | 0.00 | 0.00 | 43 | 1016.0 |
| 20260506223314 | 16 | 38 | 3.2 | 3.2 | 0.00 | 0.00 | 0.00 | 43 | 1016.1 |
| 20260506222813 | 16 | 297 | 3.2 | 3.2 | 0.00 | 0.00 | 0.00 | 46 | 1016.1 |
| 20260506222308 | 16 | 48 | 0.0 | 1.6 | 0.00 | 0.00 | 0.00 | 45 | 1016.1 |
| 20260506221806 | 16 | 7 | 3.2 | 4.8 | 0.00 | 0.00 | 0.00 | 46 | 1015.9 |
| 20260506221304 | 16 | 127 | 0.0 | 0.0 | 0.00 | 0.00 | 0.00 | 45 | 1016.0 |
| 20260506220802 | 16 | 176 | 0.0 | 0.0 | 0.00 | 0.00 | 0.00 | 50 | 1015.9 |
| 20260506220302 | 16 | 116 | 1.6 | 3.2 | 0.00 | 0.00 | 0.00 | 46 | 1016.1 |
| 20260506215758 | 16 | 75 | 0.0 | 1.6 | 0.00 | 0.00 | 0.00 | 46 | 1016.1 |
| 20260506215254 | 16 | 174 | 0.0 | 1.6 | 0.00 | 0.00 | 0.00 | 48 | 1016.0 |
| 20260506214750 | 16 | 325 | 1.6 | 1.6 | 0.00 | 0.00 | 0.00 | 45 | 1016.0 |
| 20260506214248 | 16 | 120 | 0.0 | 1.6 | 0.00 | 0.00 | 0.00 | 48 | 1015.9 |
| 20260506213746 | 16 | 180 | 0.0 | 0.0 | 0.00 | 0.00 | 0.00 | 48 | 1016.1 |
| 20260506213243 | 16 | 166 | 0.0 | 0.0 | 0.00 | 0.00 | 0.00 | 48 | 1016.4 |
| 20260506212740 | 16 | 154 | 1.6 | 3.2 | 0.00 | 0.00 | 0.00 | 44 | 1016.3 |
| 20260506212236 | 16 | 61 | 1.6 | 3.2 | 0.00 | 0.00 | 0.00 | 44 | 1016.7 |
| 20260506211731 | 16 | 73 | 0.0 | 1.6 | 0.00 | 0.00 | 0.00 | 45 | 1016.5 |
| 20260506211227 | 16 | 176 | 0.0 | 0.0 | 0.00 | 0.00 | 0.00 | 52 | 1016.5 |
| 20260506210725 | 16 | 140 | 1.6 | 3.2 | 0.00 | 0.00 | 0.00 | 44 | 1016.9 |
| 20260506210222 | 16 | 172 | 0.0 | 1.6 | 0.00 | 0.00 | 0.00 | 45 | 1016.8 |
| 20260506205719 | 16 | 102 | 0.0 | 0.0 | 0.00 | 0.00 | 0.00 | 45 | 1017.0 |
| 20260506205214 | 15 | 146 | 0.0 | 0.0 | 0.00 | 0.00 | 0.00 | 45 | 1016.8 |
| 20260506204711 | 16 | 160 | 0.0 | 0.0 | 0.00 | 0.00 | 0.00 | 45 | 1017.0 |
| 20260506204208 | 16 | 153 | 0.0 | 1.6 | 0.00 | 0.00 | 0.00 | 47 | 1016.8 |
| 20260506203707 | 17 | 82 | 3.2 | 6.4 | 0.00 | 0.00 | 0.00 | 44 | 1016.8 |
| 20260506203203 | 17 | 67 | 0.0 | 1.6 | 0.00 | 0.00 | 0.00 | 48 | 1016.7 |
| 20260506202701 | 16 | 227 | 3.2 | 3.2 | 0.00 | 0.00 | 0.00 | 48 | 1016.9 |
| 20260506202157 | 16 | 4 | 3.2 | 4.8 | 0.00 | 0.00 | 0.00 | 46 | 1017.0 |
| 20260506201654 | 16 | 1 | 6.4 | 11.3 | 0.00 | 0.00 | 0.00 | 44 | 1017.0 |
| 20260506201150 | 16 | 159 | 3.2 | 3.2 | 0.00 | 0.00 | 0.00 | 45 | 1017.1 |
| 20260506200647 | 17 | 123 | 4.8 | 9.7 | 0.00 | 0.00 | 0.00 | 43 | 1017.1 |
| 20260506200144 | 16 | 213 | 1.6 | 4.8 | 0.00 | 0.00 | 0.00 | 43 | 1017.1 |
| 20260506195641 | 16 | 307 | 4.8 | 9.7 | 0.00 | 0.00 | 0.00 | 43 | 1017.4 |
| 20260506195137 | 16 | 89 | 3.2 | 4.8 | 0.00 | 0.00 | 0.00 | 47 | 1017.4 |
| 20260506194635 | 16 | 158 | 4.8 | 4.8 | 0.00 | 0.00 | 0.00 | 46 | 1017.3 |
| 20260506194130 | 16 | 182 | 0.0 | 1.6 | 0.00 | 0.00 | 0.00 | 50 | 1017.6 |
| 20260506193629 | 16 | 156 | 1.6 | 3.2 | 0.00 | 0.00 | 0.00 | 48 | 1017.5 |
| 20260506193126 | 16 | 59 | 3.2 | 3.2 | 0.00 | 0.00 | 0.00 | 49 | 1017.6 |
| 20260506192622 | 16 | 128 | 0.0 | 0.0 | 0.00 | 0.00 | 0.00 | 49 | 1017.5 |
| 20260506192118 | 16 | 190 | 1.6 | 3.2 | 0.00 | 0.00 | 0.00 | 52 | 1017.6 |
| 20260506191615 | 15 | 172 | 0.0 | 1.6 | 0.00 | 0.00 | 0.00 | 50 | 1017.6 |
| 20260506191111 | 16 | 37 | 0.0 | 1.6 | 0.00 | 0.00 | 0.00 | 49 | 1017.7 |
| 20260506190609 | 15 | 42 | 6.4 | 9.7 | 0.00 | 0.00 | 0.00 | 48 | 1017.8 |
| 20260506190105 | 15 | 165 | 1.6 | 1.6 | 0.00 | 0.00 | 0.00 | 52 | 1018.0 |
| 20260506185603 | 15 | 280 | 0.0 | 0.0 | 0.00 | 0.00 | 0.00 | 49 | 1018.0 |
| 20260506185059 | 15 | 197 | 0.0 | 1.6 | 0.00 | 0.00 | 0.00 | 52 | 1018.3 |
| 20260506184556 | 15 | 195 | 0.0 | 1.6 | 0.00 | 0.00 | 0.00 | 53 | 1018.2 |
| 20260506184054 | 15 | 169 | 1.6 | 3.2 | 0.00 | 0.00 | 0.00 | 53 | 1018.6 |
| 20260506183549 | 15 | 136 | 1.6 | 1.6 | 0.00 | 0.00 | 0.00 | 59 | 1018.7 |
| 20260506183046 | 15 | 164 | 0.0 | 1.6 | 0.00 | 0.00 | 0.00 | 51 | 1018.7 |
| 20260506182543 | 15 | 163 | 1.6 | 1.6 | 0.00 | 0.00 | 0.00 | 57 | 1018.8 |
| 20260506182041 | 15 | 154 | 0.0 | 1.6 | 0.00 | 0.00 | 0.00 | 55 | 1018.7 |
| 20260506181539 | 14 | 177 | 0.0 | 0.0 | 0.00 | 0.00 | 0.00 | 56 | 1018.8 |
| 20260506181035 | 15 | 180 | 0.0 | 0.0 | 0.00 | 0.00 | 0.00 | 53 | 1018.8 |
| 20260506180532 | 15 | 249 | 4.8 | 6.4 | 0.00 | 0.00 | 0.00 | 55 | 1018.7 |
| 20260506180028 | 14 | 331 | 1.6 | 3.2 | 0.00 | 0.00 | 0.00 | 55 | 1018.6 |
| 20260506175525 | 13 | 95 | 0.0 | 0.0 | 0.00 | 0.00 | 0.00 | 61 | 1018.6 |
| 20260506175021 | 14 | 138 | 3.2 | 3.2 | 0.00 | 0.00 | 0.00 | 58 | 1018.6 |
| 20260506174520 | 13 | 176 | 1.6 | 1.6 | 0.00 | 0.00 | 0.00 | 59 | 1018.5 |
| 20260506174015 | 13 | 141 | 3.2 | 4.8 | 0.00 | 0.00 | 0.00 | 58 | 1018.7 |
| 20260506173514 | 14 | 349 | 3.2 | 4.8 | 0.00 | 0.00 | 0.00 | 57 | 1018.6 |
| 20260506173010 | 14 | 137 | 0.0 | 0.0 | 0.00 | 0.00 | 0.00 | 61 | 1018.9 |
| 20260506172508 | 14 | 199 | 0.0 | 0.0 | 0.00 | 0.00 | 0.00 | 60 | 1018.9 |
| 20260506172004 | 14 | 136 | 0.0 | 0.0 | 0.00 | 0.00 | 0.00 | 58 | 1018.9 |
| 20260506171501 | 13 | 139 | 0.0 | 1.6 | 0.00 | 0.00 | 0.00 | 58 | 1018.7 |
| 20260506170959 | 13 | 185 | 0.0 | 0.0 | 0.00 | 0.00 | 0.00 | 58 | 1018.5 |
| 20260506170455 | 13 | 180 | 0.0 | 1.6 | 0.00 | 0.00 | 0.00 | 61 | 1018.4 |
| 20260506165954 | 14 | 39 | 3.2 | 4.8 | 0.00 | 0.00 | 0.00 | 56 | 1018.3 |
| 20260506165452 | 13 | 175 | 0.0 | 0.0 | 0.00 | 0.00 | 0.00 | 61 | 1018.2 |
| 20260506164948 | 13 | 355 | 3.2 | 4.8 | 0.00 | 0.00 | 0.00 | 58 | 1018.4 |
| 20260506164444 | 13 | 74 | 0.0 | 0.0 | 0.00 | 0.00 | 0.00 | 60 | 1018.3 |
| 20260506163942 | 13 | 96 | 0.0 | 0.0 | 0.00 | 0.00 | 0.00 | 60 | 1018.2 |
| 20260506163437 | 13 | 153 | 1.6 | 3.2 | 0.00 | 0.00 | 0.00 | 58 | 1018.4 |
| 20260506162932 | 13 | 95 | 0.0 | 1.6 | 0.00 | 0.00 | 0.00 | 58 | 1018.3 |
| 20260506162430 | 13 | 335 | 3.2 | 3.2 | 0.00 | 0.00 | 0.00 | 57 | 1018.2 |
| 20260506161927 | 13 | 141 | 1.6 | 1.6 | 0.00 | 0.00 | 0.00 | 57 | 1018.2 |
| 20260506161426 | 13 | 132 | 4.8 | 4.8 | 0.00 | 0.00 | 0.00 | 57 | 1018.2 |
| 20260506160923 | 13 | 170 | 0.0 | 0.0 | 0.00 | 0.00 | 0.00 | 58 | 1018.2 |
| 20260506160420 | 12 | 178 | 0.0 | 0.0 | 0.00 | 0.00 | 0.00 | 62 | 1018.4 |
| 20260506155918 | 12 | 140 | 1.6 | 3.2 | 0.00 | 0.00 | 0.00 | 61 | 1018.2 |
| 20260506155415 | 12 | 217 | 0.0 | 1.6 | 0.00 | 0.00 | 0.00 | 60 | 1018.0 |
| 20260506153536 | 11 | 31 | 6.4 | 6.4 | 0.00 | 0.00 | 0.00 | 64 | 1018.1 |
| 20260506153034 | 11 | 174 | 0.0 | 0.0 | 0.00 | 0.00 | 0.00 | 65 | 1018.0 |
| 20260506152531 | 11 | 323 | 3.2 | 3.2 | 0.00 | 0.00 | 0.00 | 67 | 1017.9 |
| 20260506152029 | 11 | 90 | 0.0 | 0.0 | 0.00 | 0.00 | 0.00 | 66 | 1017.9 |
| 20260506151526 | 10 | 155 | 0.0 | 0.0 | 0.00 | 0.00 | 0.00 | 66 | 1018.2 |
| 20260506151023 | 10 | 149 | 0.0 | 0.0 | 0.00 | 0.00 | 0.00 | 68 | 1018.2 |
| 20260506150519 | 10 | 114 | 3.2 | 3.2 | 0.00 | 0.00 | 0.00 | 66 | 1018.1 |
| 20260506150017 | 10 | 116 | 3.2 | 6.4 | 0.00 | 0.00 | 0.00 | 66 | 1018.3 |
| 20260506145513 | 10 | 142 | 0.0 | 0.0 | 0.00 | 0.00 | 0.00 | 72 | 1018.2 |
| 20260506145011 | 10 | 139 | 1.6 | 1.6 | 0.00 | 0.00 | 0.00 | 70 | 1018.0 |
| 20260506144507 | 10 | 109 | 0.0 | 0.0 | 0.00 | 0.00 | 0.00 | 69 | 1017.9 |
| 20260506144005 | 10 | 162 | 0.0 | 0.0 | 0.00 | 0.00 | 0.00 | 72 | 1018.0 |
| 20260506143502 | 10 | 47 | 3.2 | 4.8 | 0.00 | 0.00 | 0.00 | 71 | 1018.1 |
| 20260506143001 | 10 | 157 | 3.2 | 3.2 | 0.00 | 0.00 | 0.00 | 73 | 1017.8 |
| 20260506142458 | 10 | 63 | 3.2 | 3.2 | 0.00 | 0.00 | 0.00 | 74 | 1017.9 |
| 20260506141955 | 10 | 110 | 1.6 | 1.6 | 0.00 | 0.00 | 0.00 | 73 | 1017.8 |
| 20260506141453 | 10 | 153 | 0.0 | 0.0 | 0.00 | 0.00 | 0.00 | 76 | 1018.1 |
| 20260506140952 | 9 | 172 | 0.0 | 0.0 | 0.00 | 0.00 | 0.00 | 78 | 1018.0 |
| 20260506140448 | 9 | 129 | 1.6 | 1.6 | 0.00 | 0.00 | 0.00 | 77 | 1017.8 |
| 20260506135945 | 8 | 7 | 3.2 | 3.2 | 0.00 | 0.00 | 0.00 | 77 | 1017.6 |
| 20260506135443 | 8 | 156 | 0.0 | 0.0 | 0.00 | 0.00 | 0.00 | 78 | 1017.5 |
| 20260506134938 | 8 | 173 | 0.0 | 1.6 | 0.00 | 0.00 | 0.00 | 80 | 1017.9 |
| 20260506134435 | 9 | 168 | 0.0 | 0.0 | 0.00 | 0.00 | 0.00 | 80 | 1017.9 |
| 20260506133932 | 8 | 180 | 0.0 | 0.0 | 0.00 | 0.00 | 0.00 | 84 | 1017.7 |
| 20260506133429 | 8 | 190 | 0.0 | 0.0 | 0.00 | 0.00 | 0.00 | 82 | 1017.4 |
| 20260506132925 | 8 | 39 | 1.6 | 3.2 | 0.00 | 0.00 | 0.00 | 84 | 1017.4 |
| 20260506132422 | 8 | 128 | 3.2 | 3.2 | 0.00 | 0.00 | 0.00 | 85 | 1017.2 |
| 20260506131920 | 8 | 151 | 0.0 | 0.0 | 0.00 | 0.00 | 0.00 | 88 | 1017.6 |
| 20260506131416 | 8 | 109 | 1.6 | 3.2 | 0.00 | 0.00 | 0.00 | 88 | 1017.5 |
| 20260506130913 | 7 | 180 | 0.0 | 0.0 | 0.00 | 0.00 | 0.00 | 89 | 1017.6 |
| 20260506130410 | 7 | 90 | 1.6 | 1.6 | 0.00 | 0.00 | 0.00 | 89 | 1017.7 |
| 20260506125908 | 7 | 175 | 0.0 | 0.0 | 0.00 | 0.00 | 0.00 | 90 | 1017.8 |
| 20260506125406 | 7 | 175 | 0.0 | 0.0 | 0.00 | 0.00 | 0.00 | 89 | 1017.7 |
| 20260506124904 | 7 | 138 | 0.0 | 0.0 | 0.00 | 0.00 | 0.00 | 90 | 1017.8 |
| 20260506124401 | 7 | 39 | 3.2 | 4.8 | 0.00 | 0.00 | 0.00 | 90 | 1017.9 |
| 20260506123858 | 7 | 160 | 0.0 | 0.0 | 0.00 | 0.00 | 0.00 | 91 | 1017.7 |
| 20260506123356 | 7 | 158 | 0.0 | 0.0 | 0.00 | 0.00 | 0.00 | 90 | 1017.8 |
| 20260506122854 | 7 | 162 | 0.0 | 0.0 | 0.00 | 0.00 | 0.00 | 90 | 1017.9 |
| 20260506122350 | 7 | 177 | 0.0 | 1.6 | 0.00 | 0.00 | 0.00 | 90 | 1017.9 |
| 20260506121849 | 7 | 36 | 1.6 | 3.2 | 0.00 | 0.00 | 0.00 | 91 | 1017.6 |
| 20260506121345 | 7 | 167 | 0.0 | 0.0 | 0.00 | 0.00 | 0.00 | 91 | 1017.6 |
| 20260506120842 | 7 | 168 | 0.0 | 0.0 | 0.00 | 0.00 | 0.00 | 91 | 1017.4 |
| 20260506120340 | 7 | 168 | 0.0 | 0.0 | 0.00 | 0.00 | 0.00 | 92 | 1017.7 |
| 20260506115837 | 7 | 174 | 0.0 | 0.0 | 0.00 | 0.00 | 0.00 | 93 | 1017.6 |
| 20260506115335 | 7 | 183 | 0.0 | 0.0 | 0.00 | 0.00 | 0.00 | 93 | 1017.7 |
| 20260506114833 | 7 | 138 | 0.0 | 0.0 | 0.00 | 0.00 | 0.00 | 93 | 1017.2 |
| 20260506114330 | 7 | 157 | 0.0 | 1.6 | 0.00 | 0.00 | 0.00 | 93 | 1017.3 |
| 20260506113829 | 7 | 177 | 0.0 | 0.0 | 0.00 | 0.00 | 0.00 | 93 | 1017.0 |
| 20260506113326 | 7 | 116 | 0.0 | 0.0 | 0.00 | 0.00 | 0.00 | 93 | 1017.0 |
| 20260506112823 | 7 | 156 | 0.0 | 0.0 | 0.00 | 0.00 | 0.00 | 93 | 1016.7 |
| 20260506112320 | 7 | 166 | 0.0 | 0.0 | 0.00 | 0.00 | 0.00 | 93 | 1016.4 |
| 20260506111817 | 7 | 174 | 0.0 | 0.0 | 0.00 | 0.00 | 0.00 | 93 | 1016.3 |
| 20260506111315 | 7 | 172 | 0.0 | 0.0 | 0.00 | 0.00 | 0.00 | 93 | 1016.5 |
| 20260506110813 | 7 | 173 | 0.0 | 0.0 | 0.00 | 0.00 | 0.00 | 93 | 1016.3 |
| 20260506110309 | 7 | 217 | 0.0 | 0.0 | 0.00 | 0.00 | 0.00 | 93 | 1016.2 |
| 20260506105806 | 7 | 177 | 0.0 | 0.0 | 0.00 | 0.00 | 0.00 | 93 | 1015.9 |
| 20260506105305 | 7 | 113 | 3.2 | 4.8 | 0.00 | 0.00 | 0.00 | 92 | 1015.8 |
| 20260506104800 | 7 | 161 | 1.6 | 1.6 | 0.00 | 0.00 | 0.00 | 92 | 1015.8 |
| 20260506104258 | 7 | 245 | 1.6 | 3.2 | 0.00 | 0.00 | 0.00 | 92 | 1015.8 |
| 20260506103755 | 7 | 141 | 0.0 | 0.0 | 0.00 | 0.00 | 0.00 | 91 | 1015.7 |
| 20260506103253 | 7 | 294 | 1.6 | 1.6 | 0.00 | 0.00 | 0.00 | 91 | 1016.0 |
| 20260506102750 | 7 | 175 | 0.0 | 0.0 | 0.00 | 0.00 | 0.00 | 91 | 1015.8 |
| 20260506102248 | 7 | 32 | 1.6 | 3.2 | 0.00 | 0.00 | 0.00 | 90 | 1015.7 |
| 20260506101745 | 7 | 143 | 0.0 | 0.0 | 0.00 | 0.00 | 0.00 | 90 | 1015.5 |
| 20260506101241 | 7 | 130 | 1.6 | 1.6 | 0.00 | 0.00 | 0.00 | 90 | 1015.7 |
| 20260506100739 | 7 | 213 | 0.0 | 1.6 | 0.00 | 0.00 | 0.00 | 90 | 1015.4 |
| 20260506100237 | 7 | 138 | 1.6 | 3.2 | 0.00 | 0.00 | 0.00 | 90 | 1015.2 |
| 20260506095735 | 7 | 194 | 1.6 | 1.6 | 0.00 | 0.00 | 0.00 | 89 | 1015.1 |
| 20260506095232 | 7 | 177 | 0.0 | 1.6 | 0.00 | 0.00 | 0.00 | 88 | 1015.2 |
| 20260506094728 | 7 | 151 | 0.0 | 0.0 | 0.00 | 0.00 | 0.00 | 89 | 1015.4 |
| 20260506094227 | 7 | 169 | 0.0 | 0.0 | 0.00 | 0.00 | 0.00 | 89 | 1015.3 |
| 20260506093725 | 7 | 176 | 0.0 | 0.0 | 0.00 | 0.00 | 0.00 | 88 | 1014.8 |
| 20260506093222 | 7 | 153 | 0.0 | 1.6 | 0.00 | 0.00 | 0.00 | 87 | 1014.5 |
| 20260506092720 | 7 | 157 | 0.0 | 1.6 | 0.00 | 0.00 | 0.00 | 87 | 1014.8 |
| 20260506092217 | 7 | 169 | 0.0 | 0.0 | 0.00 | 0.00 | 0.00 | 86 | 1015.3 |
| 20260506091715 | 7 | 173 | 0.0 | 0.0 | 0.00 | 0.00 | 0.00 | 87 | 1015.3 |
| 20260506091212 | 7 | 186 | 0.0 | 0.0 | 0.00 | 0.00 | 0.00 | 87 | 1015.6 |
| 20260506090710 | 7 | 183 | 0.0 | 0.0 | 0.00 | 0.00 | 0.00 | 86 | 1014.9 |
| 20260506090206 | 7 | 166 | 0.0 | 0.0 | 0.00 | 0.00 | 0.00 | 84 | 1014.3 |
| 20260506085703 | 7 | 172 | 0.0 | 0.0 | 0.00 | 0.00 | 0.00 | 85 | 1014.4 |
| 20260506085159 | 7 | 175 | 0.0 | 0.0 | 0.00 | 0.00 | 0.00 | 85 | 1014.6 |
| 20260506084656 | 7 | 175 | 0.0 | 0.0 | 0.00 | 0.00 | 0.00 | 86 | 1014.3 |
| 20260506084152 | 7 | 181 | 0.0 | 0.0 | 0.00 | 0.00 | 0.00 | 87 | 1014.1 |
| 20260506083649 | 7 | 170 | 0.0 | 0.0 | 0.00 | 0.00 | 0.00 | 85 | 1013.5 |
| 20260506083147 | 7 | 167 | 0.0 | 0.0 | 0.00 | 0.00 | 0.00 | 85 | 1013.4 |
| 20260506082644 | 7 | 164 | 0.0 | 0.0 | 0.00 | 0.00 | 0.00 | 86 | 1013.2 |